Regional Weather Roundup
Issued by NWS

Home | Current Version | Previous Version | Graphics & Text | Print | Product List | Glossary On
Versions: 1 2 3 4 5 6 7 8 9 10 11 12 13 14 15 16 17 18 19 20 21 22 23 24 25 26 27 28 29 30 31 32 33 34 35 36 37 38 39 40 41 42 43 44 45 46 47 48 49 50
241
ASUS43 KDMX 221101
RWRIA

WEATHER ROUNDUP FOR IOWA
NATIONAL WEATHER SERVICE DES MOINES IA
600 AM CDT TUE MAY 22 2018

NOTE: "FAIR" INDICATES FEW OR NO CLOUDS BELOW 12,000 FEET WITH NO
SIGNIFICANT WEATHER AND/OR OBSTRUCTIONS TO VISIBILITY.

* - THESE STATIONS ARE NOT NWS STATIONS...THUS NOT UNDER NWS
QUALITY CONTROL.  THEY ALSO DO NOT REPORT WEATHER SUCH
AS PRECIPITATION OR FOG.

IAZ001>003-012>014-020>022-031>034-043>046-221200-
   NORTHWEST IOWA

CITY           SKY/WX    TMP DP  RH WIND       PRES   REMARKS
CARROLL *      CLOUDY   N/A N/A N/A CALM      30.01R
CHEROKEE *       N/A     51  51 100 CALM      30.01S FOG
DENISON *      CLOUDY    57  57 100 CALM      30.02S FOG
LE MARS *      CLOUDY    54  52  94 CALM      30.00S FOG
ORANGE CITY *  CLOUDY    55  54  94 E5        30.01R FOG
SHELDON *      FOG       54  54 100 SE3       30.00R VSB<1/4
SIOUX CITY     CLOUDY    60  56  86 E7        29.98F
SPENCER        FOG       55  54  96 S3        30.02S VSB<1/4
STORM LAKE *   FOG       54  54 100 CALM      30.01S VSB<1/4
$$

IAZ055>058-069>071-079>083-090>094-221200-
   SOUTHWEST IOWA

CITY           SKY/WX    TMP DP  RH WIND       PRES   REMARKS
ATLANTIC *     CLOUDY    57  57 100 CALM      30.02R FOG
AUDUBON *      CLOUDY    55  54  94 CALM      30.03R FOG
CLARINDA *     PTCLDY    55  54  94 SW3       30.03S
COUNCIL BLFS * CLOUDY    59  59 100 SE7       30.00R
CRESTON *      CLOUDY    59  57  94 CALM      30.04R
HARLAN  *      CLOUDY    57  57 100 CALM      30.05R
LAMONI         CLOUDY    58  56  93 CALM      30.03R
RED OAK *      CLOUDY    57  57 100 MISG      30.01R
SHENANDOAH *   MOCLDY    61  59  94 S3        30.01R
$$

IAZ047>049-059>061-072>074-084-221200-
   CENTRAL IOWA

CITY           SKY/WX    TMP DP  RH WIND       PRES   REMARKS
AMES           FOG       58  58 100 CALM      30.02R VSB 1/4
ANKENY *       FOG       59  59 100 CALM      30.02R VSB<1/4
BOONE *        FOG       59  57  94 CALM      30.02R VSB<1/4
CHARITON *     CLOUDY    59  59 100 CALM      30.02R FOG
DES MOINES     CLOUDY    61  58  90 N3        30.01R
GRINNELL*        N/A     57  56  97 SW6       30.03R FOG
KNOXVILLE *    CLOUDY    57  57 100 N3        30.01R FOG
MARSHALLTOWN   FOG       54  54 100 NE6       30.01R VSB<1/4
NEWTON *       FOG       59  59 100 W3        30.02R VSB<1/4
PELLA *        FOG       58  57  98 CALM      30.03R VSB<1/4
PERRY *        MOCLDY    57  57  98 CALM      30.02R
$$

IAZ004>006-015-016-023>025-035-036-221200-
   NORTH CENTRAL IOWA

CITY           SKY/WX    TMP DP  RH WIND       PRES   REMARKS
ALGONA *       CLOUDY    55  55 100 E5        30.03S FOG
CLARION *      FOG       55  55 100 NE5       30.02S VSB<1/4
ESTHERVILLE    FOG       56  56 100 CALM      30.01S VSB 1/4
FORT DODGE *   FOG       53  53 100 CALM      30.02R VSB<1/4
MASON CITY     CLOUDY    56  56 100 CALM      30.04R FOG
FOREST CITY *  FOG       55  55 100 CALM      30.03R VSB 1/4
WEBSTER CITY * FOG       54  54 100 CALM      30.00R VSB<1/4
IOWA FALLS *   FOG       55  55  99 CALM      30.04R VSB<1/4
$$

IAZ007>011-017>019-026>030-037>042-050>054-066-221200-
   NORTHEAST IOWA

CITY           SKY/WX    TMP DP  RH WIND       PRES   REMARKS
CEDAR RAPIDS   FOG       55  55 100 N3        30.01R VSB 1/16
CHARLES CITY * CLOUDY    57  57 100 N3        30.03R FOG
CLINTON *        N/A    N/A N/A N/A N8        30.01R
DECORAH *      CLOUDY    57  57 100 CALM      30.01R FOG
DUBUQUE        CLOUDY    59  56  89 NW10      30.01R
MONTICELLO *   CLOUDY    59  59 100 CALM      30.01R
OELWEIN *      CLOUDY    59  57  94 NW8       30.03R
WATERLOO       CLOUDY    59  59 100 CALM      30.02R FOG
$$

IAZ064-065-067-068-078-221200-
   EAST CENTRAL IOWA

CITY           SKY/WX    TMP DP  RH WIND       PRES   REMARKS
DAVENPORT      FOG       54  54 100 N5        30.03R VSB 1
IOWA CITY      FAIR      56  55  97 CALM      30.03R FOG
MUSCATINE *    FAIR      55  55 100 CALM      30.02R FOG
QUAD CITIES    FOG       54  54 100 CALM      30.00R VSB<1/4
$$

IAZ062-063-075>077-085>089-095>099-221200-
   SOUTHEAST IOWA

CITY           SKY/WX    TMP DP  RH WIND       PRES   REMARKS
BURLINGTON     CLOUDY    54  53  97 CALM      30.01S FOG
FAIRFIELD *    FOG       54  54 100 CALM      30.01R VSB<1/4
FORT MADISON * FOG       55  55 100 CALM      30.03R VSB 1/4
KEOKUK *       FOG       57  57 100 CALM      30.01S VSB<1/4
OSKALOOSA *    FOG       55  55  99 CALM      30.02R VSB<1/4
CENTERVILLE *    N/A     55  55 100 CALM      30.04R FOG
OTTUMWA        FOG       56  55  97 CALM      30.01R VSB 1/4
WASHINGTON *   FOG       54  54 100 CALM      30.02R VSB<1/4
$$

ABBREVIATIONS USED IN REMARKS
   TC - TEMPERATURES IN CELSIUS
  WCI - WIND CHILL INDEX
   HX - HEAT INDEX
  VSB - VISIBILITY
$$





USA.gov is the U.S. government's official web portal to all federal, state and local government web resources and services.